#timestamp,LO_Frequency,Hit,StdDev 
1581645615.1,286047001.0,P
1581645635.9,286046999.9,N
1581645655.7,286047000.2,N
1581645675.5,286046998.9,N
1581645695.4,286046998.9,N
1581645715.2,286046998.8,N
1581645735.1,286046996.7,Y
1581645736.0,286046996.7,P
1581645755.8,286046999.2,N
1581645775.6,286046998.8,N
1581645795.5,286046998.3,N
1581645815.3,286046998.4,N
1581645835.1,286047001.1,N
1581645855.9,286046998.3,N
1581645875.7,286047001.0,N
1581645895.6,286046998.1,N
1581645915.4,286046998.2,N
1581645935.2,286046999.1,N
1581645955.1,286046999.0,N
1581645956.0,286046999.0,N
1581645975.8,286046995.1,Y
1581645995.7,286046998.0,P
1581646015.5,286046997.7,P
1581646035.3,286046999.1,N
1581646055.2,286047000.2,N
1581646075.0,286047002.5,N
1581646075.9,286047002.5,N
1581646095.8,286047001.7,N
1581646115.6,286047002.1,N
1581646135.4,286047002.2,N
1581646155.3,286047000.2,N
1581646175.1,286046998.6,N
1581646195.9,286046998.1,N
1581646215.7,286046998.5,N
1581646235.5,286047001.1,N
1581646255.4,286047000.5,N
1581646275.2,286047002.8,N
1581646295.0,286047002.5,N
1581646295.9,286047002.5,N
1581646315.8,286047001.9,N
1581646335.6,286047001.7,N
1581646355.5,286046999.8,N
1581646375.3,286046998.2,N
1581646395.1,286047001.2,N
1581646415.9,286046998.7,N
1581646435.7,286047000.8,N
1581646455.5,286047003.6,N
1581646475.4,286047003.0,N
1581646495.2,286047005.3,N
1581646515.1,286047005.1,N
1581646516.0,286047005.1,N
1581646535.8,286047004.3,N
1581646555.6,286046999.8,N
1581646575.5,286047000.1,N
1581646595.3,286047002.3,N
1581646615.2,286047001.9,N
1581646635.9,286047001.7,N
1581646655.7,286047001.5,N
1581646675.6,286046999.9,N
1581646695.4,286046999.8,N
1581646715.2,286047002.3,N
1581646735.1,286047002.4,N
1581646736.0,286047002.4,N
1581646755.8,286047002.4,N
1581646775.7,286047002.4,N
1581646795.5,286047002.3,N
1581646815.3,286047002.1,N
1581646835.2,286047002.6,N
1581646855.0,286047001.8,N
1581646855.9,286047001.8,N
1581646875.8,286046999.7,N
1581646895.6,286047000.3,N
1581646915.4,286046999.9,N
1581646935.3,286047000.2,N
1581646955.1,286047003.9,N
1581646975.9,286047003.2,N
1581646995.7,286047003.5,N
1581647015.5,286047002.1,N
1581647035.4,286046998.1,N
1581647055.2,286047000.3,N
1581647075.0,286047002.4,N
1581647075.9,286047002.4,N
1581647095.8,286047002.8,N
1581647115.6,286047002.0,N
1581647135.5,286047004.4,Y
1581647155.3,286047000.6,P
1581647175.1,286047000.9,N
1581647195.9,286046998.4,P
1581647215.7,286047000.7,N
1581647235.5,286047001.1,N
1581647255.4,286046999.6,N
1581647275.2,286046998.1,N
1581647295.1,286047001.1,N
1581647296.0,286047001.1,N
1581647345.8,286047000.9,E
1581647355.7,286047002.5,N
1581647375.6,286047002.0,P
1581647395.4,286046999.9,N
1581647415.3,286046998.9,N
1581647435.1,286046998.4,N
1581647436.0,286046998.4,N
1581647455.8,286046998.1,N
1581647475.7,286047001.2,N
1581647495.5,286047000.9,N
1581647515.3,286046998.6,N
1581647535.2,286047000.6,N
1581647555.0,286046999.0,N
1581647555.9,286046999.0,N
1581647575.8,286046998.9,N
1581647595.6,286046999.3,N
1581647615.4,286047000.3,N
1581647635.3,286046998.2,N
1581647655.1,286046998.1,N
1581647675.8,286046999.9,N
1581647695.7,286047000.4,N
1581647715.5,286047000.2,N
1581647735.4,286047000.1,N
1581647755.2,286047000.8,N
1581647775.0,286047000.9,N
1581647775.9,286047000.9,N
1581647795.8,286046998.3,N
1581647815.6,286046998.8,N
1581647835.5,286046998.9,N
1581647855.3,286046997.0,N
1581647875.1,286047001.1,N
1581647895.9,286046999.3,N
1581647915.7,286046998.3,N
1581647935.6,286047001.1,N
1581647955.4,286047001.1,N
1581647975.2,286047000.2,N
1581647995.1,286047000.0,N
1581647996.0,286047000.0,N
1581648015.8,286047000.8,N
1581648035.6,286046999.7,N
1581648055.5,286047002.5,N
1581648075.3,286047002.4,N
1581648095.2,286047001.1,N
1581648115.9,286047000.1,N
1581648135.7,286047000.9,N
1581648155.6,286046998.9,N
1581648175.4,286047000.5,N
1581648195.2,286047000.8,N
1581648215.1,286046998.3,N
1581648216.0,286046998.3,N
1581648235.8,286046998.6,N
1581648255.7,286046998.2,N
1581648275.5,286047000.0,N
1581648295.3,286046998.8,N
1581648315.2,286046998.6,N
1581648335.0,286047000.3,N
1581648335.9,286047000.3,N
1581648355.8,286047000.6,N
1581648375.6,286047001.2,N
1581648395.4,286047000.4,N
1581648415.3,286046998.4,N
1581648435.1,286046998.9,N
1581648455.9,286046999.0,N
1581648475.7,286047000.9,N
1581648495.5,286047002.3,N
1581648515.4,286047001.7,N
1581648535.2,286047001.6,N
1581648555.0,286047003.1,N
1581648555.9,286047003.1,N
1581648575.8,286047004.4,N
1581648595.6,286047002.3,N
1581648615.5,286047002.8,N
1581648635.3,286047002.3,N
1581648655.1,286047002.3,N
1581648675.9,286046999.8,N
1581648695.7,286047000.7,N
1581648715.5,286046998.5,N
1581648735.4,286046998.5,N
1581648755.2,286046998.2,N
1581648775.1,286047001.0,N
1581648776.0,286047001.0,N
1581648795.8,286047000.3,N
1581648815.6,286047000.2,N
1581648835.5,286047002.7,N
1581648855.3,286047002.4,N
1581648875.1,286047002.5,N
1581648895.9,286047000.2,N
1581648915.7,286047000.3,N
1581648935.6,286047001.1,N
1581648955.4,286046998.1,N
1581648975.2,286046998.5,N
1581648995.1,286046999.0,N
1581648996.0,286046999.0,N
1581649015.8,286046999.2,N
1581649035.7,286047000.7,N
1581649055.5,286047000.2,N
1581649075.3,286047002.5,N
1581649095.2,286047002.6,N
1581649115.0,286047004.1,N
1581649115.9,286047004.1,N
1581649135.8,286047001.4,N
1581649155.6,286047002.8,N
1581649175.4,286047002.2,N
1581649195.3,286046999.7,N
